Howell, MI

6:10 AM EDT on July 28, 2017 (GMT -0400)
Livingston County

Weather History for KOZW - November, 2013

Change the Weather History Date:

Friday, November 8, 2013

  Actual Average Record
Temperature  
Mean Temperature 36 °F -  
Max Temperature 44 °F 48 °F 66 °F (1999)
Min Temperature 29 °F 33 °F 19 °F (2003)
Degree Days  
Heating Degree Days 28    
Moisture  
Dew Point 29 °F    
Average Humidity 77    
Maximum Humidity 99    
Minimum Humidity 49    
Precipitation  
Precipitation 0.00 in - - ()
Sea Level Pressure  
Sea Level Pressure 30.19 in    
Wind  
Wind Speed 6 mph (WSW)    
Max Wind Speed 12 mph    
Max Gust Speed 16 mph    
Visibility 10 miles    
Events      
Averages and records for this station are not official NWS values.
T = Trace of Precipitation, MM = Missing Value Source: NWS Daily Summary

Daily Weather History Graph

Daily Weather History Graph

Search for Another Location

Airport or City:

Trip Planner

Search our weather history database for the weather conditions in past years. The results will help you decide how hot, cold, wet, or windy it might be!

Date:

Astronomy

Nov. 08, 2013 Rise Set
Actual Time 7:18 AM EST 5:19 PM EST
Civil Twilight 6:48 AM EST 5:49 PM EST
Nautical Twilight 6:15 AM EST 6:23 PM EST
Astronomical Twilight 5:42 AM EST 6:56 PM EST
Moon 12:13 PM EST (11/8) 10:40 PM EST (11/8)
Length of Visible Light 11h 00m
Length of Day
10h 01m
Waxing Crescent, 33% of the Moon is Illuminated
Nov 8
Waxing Crescent
Nov 10
First Quarter
Nov 17
Full
Nov 25
Last Quarter
Dec 2
New

Hourly Weather History & Observations

Time (EST) Temp. Windchill Dew Point Humidity Pressure Visibility Wind Dir Wind Speed Gust Speed Precip Events Conditions
12:14 AM 31.1 °F 26.4 °F 28.8 °F 91% 30.10 in 10.0 mi WSW 4.6 mph - N/A   Clear
12:35 AM 30.7 °F 24.9 °F 28.8 °F 92% 30.11 in 10.0 mi WSW 5.8 mph - N/A   Clear
12:54 AM 30.9 °F 25.2 °F 29.5 °F 94% 30.11 in 10.0 mi WSW 5.8 mph - N/A   Scattered Clouds
1:14 AM 30.7 °F 26.0 °F 29.8 °F 96% 30.10 in 7.0 mi West 4.6 mph - N/A   Scattered Clouds
1:35 AM 30.2 °F 22.6 °F 29.5 °F 97% 30.12 in 7.0 mi WSW 8.1 mph - N/A   Clear
1:54 AM 30.9 °F 25.2 °F 30.2 °F 97% 30.12 in 7.0 mi WSW 5.8 mph - N/A   Clear
2:14 AM 31.8 °F 25.4 °F 31.3 °F 98% 30.12 in 7.0 mi West 6.9 mph - N/A   Mostly Cloudy
2:35 AM 32.0 °F 26.4 °F 31.6 °F 99% 30.13 in 10.0 mi West 5.8 mph - N/A   Overcast
2:54 AM 32.0 °F 26.4 °F 31.1 °F 96% 30.14 in 7.0 mi West 5.8 mph - N/A   Overcast
3:15 AM 32.0 °F 25.6 °F 31.6 °F 99% 30.14 in 10.0 mi West 6.9 mph - N/A   Overcast
3:34 AM 32.0 °F 26.4 °F 31.6 °F 99% 30.14 in 10.0 mi West 5.8 mph - N/A   Mostly Cloudy
3:54 AM 31.5 °F 26.8 °F 30.7 °F 97% 30.14 in 7.0 mi West 4.6 mph - N/A   Scattered Clouds
4:15 AM 30.6 °F 24.7 °F 29.8 °F 97% 30.15 in 7.0 mi WSW 5.8 mph - N/A   Clear
4:34 AM 31.1 °F 26.4 °F 30.9 °F 99% 30.15 in 7.0 mi West 4.6 mph - N/A   Mostly Cloudy
4:54 AM 31.5 °F 26.8 °F 30.9 °F 98% 30.16 in 7.0 mi West 4.6 mph - N/A   Overcast
5:15 AM 31.1 °F 25.4 °F 30.7 °F 99% 30.16 in 10.0 mi West 5.8 mph - N/A   Mostly Cloudy
5:34 AM 32.0 °F 26.4 °F 31.5 °F 98% 30.17 in 10.0 mi West 5.8 mph - N/A   Mostly Cloudy
5:54 AM 31.8 °F 25.4 °F 31.1 °F 97% 30.18 in 10.0 mi WSW 6.9 mph - N/A   Mostly Cloudy
6:15 AM 30.7 °F 24.9 °F 30.2 °F 98% 30.18 in 10.0 mi WSW 5.8 mph - N/A   Clear
6:34 AM 30.7 °F 24.1 °F 30.2 °F 98% 30.19 in 10.0 mi WSW 6.9 mph - N/A   Clear
6:54 AM 30.4 °F 25.6 °F 29.8 °F 98% 30.19 in 10.0 mi West 4.6 mph - N/A   Clear
7:15 AM 30.2 °F 24.3 °F 29.3 °F 96% 30.20 in 10.0 mi WSW 5.8 mph - N/A   Scattered Clouds
7:34 AM 29.8 °F 23.9 °F 29.1 °F 97% 30.21 in 10.0 mi WSW 5.8 mph - N/A   Scattered Clouds
7:54 AM 31.8 °F 26.2 °F 30.6 °F 95% 30.22 in 10.0 mi WSW 5.8 mph - N/A   Mostly Cloudy
8:15 AM 32.0 °F 25.6 °F 31.1 °F 96% 30.23 in 10.0 mi WSW 6.9 mph - N/A   Overcast
8:34 AM 32.9 °F 25.9 °F 31.1 °F 93% 30.24 in 10.0 mi WSW 8.1 mph - N/A   Overcast
8:54 AM 33.8 °F 27.7 °F 31.5 °F 91% 30.24 in 10.0 mi West 6.9 mph - N/A   Overcast
9:15 AM 34.9 °F 29.0 °F 31.5 °F 87% 30.25 in 10.0 mi West 6.9 mph - N/A   Overcast
9:34 AM 35.8 °F 29.4 °F 31.8 °F 86% 30.25 in 10.0 mi West 8.1 mph - N/A   Overcast
9:54 AM 37.2 °F 30.6 °F 32.0 °F 81% 30.25 in 10.0 mi West 9.2 mph - N/A   Overcast
10:15 AM 38.7 °F 32.9 °F 30.9 °F 74% 30.25 in 10.0 mi West 8.1 mph - N/A   Mostly Cloudy
10:34 AM 40.5 °F 34.1 °F 30.2 °F 67% 30.26 in 10.0 mi West 10.4 mph - N/A   Mostly Cloudy
10:54 AM 41.7 °F 35.2 °F 28.9 °F 61% 30.25 in 10.0 mi WNW 11.5 mph - N/A   Mostly Cloudy
11:15 AM 42.3 °F 36.8 °F 27.0 °F 55% 30.25 in 10.0 mi WNW 9.2 mph - N/A   Scattered Clouds
11:34 AM 42.3 °F 36.3 °F 26.6 °F 54% 30.26 in 10.0 mi West 10.4 mph - N/A   Mostly Cloudy
11:55 AM 42.6 °F 38.4 °F 25.7 °F 51% 30.25 in 10.0 mi West 6.9 mph - N/A   Mostly Cloudy
12:14 PM 43.0 °F 37.2 °F 25.5 °F 50% 30.25 in 10.0 mi West 10.4 mph 16.1 mph N/A   Overcast
12:34 PM 41.5 °F 36.4 °F 25.5 °F 53% 30.25 in 10.0 mi West 8.1 mph - N/A   Overcast
12:55 PM 41.2 °F 37.3 °F 25.3 °F 53% 30.24 in 10.0 mi West 5.8 mph 10.4 mph N/A   Mostly Cloudy
1:14 PM 41.9 °F 36.3 °F 25.3 °F 52% 30.23 in 10.0 mi SW 9.2 mph - N/A   Mostly Cloudy
1:34 PM 41.4 °F 35.7 °F 25.3 °F 53% 30.23 in 10.0 mi West 9.2 mph - N/A   Mostly Cloudy
1:55 PM 42.8 °F 41.1 °F 24.6 °F 49% 30.22 in 10.0 mi West 3.5 mph - N/A   Mostly Cloudy
2:14 PM 44.1 °F 39.0 °F 26.1 °F 49% 30.22 in 10.0 mi SW 9.2 mph - N/A   Mostly Cloudy
2:34 PM 43.3 °F 38.6 °F 26.1 °F 51% 30.21 in 10.0 mi WSW 8.1 mph - N/A   Scattered Clouds
2:55 PM 42.4 °F 39.6 °F 25.9 °F 52% 30.21 in 10.0 mi West 4.6 mph - N/A   Clear
3:14 PM 43.7 °F 39.7 °F 26.2 °F 50% 30.21 in 10.0 mi WSW 6.9 mph - N/A   Scattered Clouds
3:34 PM 42.4 °F 38.1 °F 26.6 °F 54% 30.21 in 10.0 mi West 6.9 mph - N/A   Clear
3:55 PM 43.0 °F 37.7 °F 26.2 °F 52% 30.21 in 10.0 mi WSW 9.2 mph - N/A   Clear
4:14 PM 42.3 °F 37.9 °F 25.9 °F 52% 30.21 in 10.0 mi SW 6.9 mph - N/A   Clear
4:34 PM 41.4 °F 36.8 °F 26.2 °F 55% 30.21 in 10.0 mi WSW 6.9 mph - N/A   Clear
4:55 PM 39.9 °F - 26.4 °F 59% 30.20 in 10.0 mi Calm Calm - N/A   Clear
5:14 PM 40.3 °F - 26.1 °F 57% 30.21 in 10.0 mi Calm Calm - N/A   Clear
5:34 PM 39.7 °F - 26.1 °F 58% 30.20 in 10.0 mi Calm Calm - N/A   Clear
5:54 PM 39.6 °F - 26.1 °F 58% 30.20 in 10.0 mi Calm Calm - N/A   Clear
6:14 PM 38.1 °F - 26.1 °F 62% 30.20 in 10.0 mi Calm Calm - N/A   Clear
6:35 PM 36.3 °F - 26.6 °F 68% 30.20 in 10.0 mi Calm Calm - N/A   Clear
6:54 PM 34.0 °F - 26.4 °F 74% 30.20 in 10.0 mi Calm Calm - N/A   Clear
7:14 PM 33.8 °F - 26.1 °F 73% 30.20 in 10.0 mi Calm Calm - N/A   Clear
7:35 PM 32.4 °F - 26.1 °F 78% 30.20 in 10.0 mi Calm Calm - N/A   Clear
7:54 PM 33.6 °F 29.4 °F 26.4 °F 75% 30.20 in 10.0 mi South 4.6 mph - N/A   Clear
8:14 PM 32.0 °F 28.7 °F 25.5 °F 77% 30.19 in 10.0 mi SSE 3.5 mph - N/A   Clear
8:35 PM 31.6 °F 28.3 °F 26.8 °F 82% 30.18 in 10.0 mi SSE 3.5 mph - N/A   Clear
8:54 PM 32.2 °F 28.9 °F 27.1 °F 82% 30.18 in 10.0 mi South 3.5 mph - N/A   Scattered Clouds
9:14 PM 36.5 °F 31.8 °F 28.4 °F 72% 30.18 in 10.0 mi South 5.8 mph - N/A   Overcast
9:35 PM 36.7 °F 32.0 °F 28.2 °F 71% 30.18 in 10.0 mi South 5.8 mph - N/A   Overcast
9:54 PM 35.2 °F 31.2 °F 29.7 °F 80% 30.18 in 10.0 mi South 4.6 mph - N/A   Mostly Cloudy
10:14 PM 38.1 °F 34.6 °F 28.9 °F 70% 30.17 in 10.0 mi SSE 4.6 mph - N/A   Overcast
10:35 PM 35.8 °F 31.9 °F 30.0 °F 80% 30.17 in 10.0 mi South 4.6 mph - N/A   Overcast
10:54 PM 37.8 °F 33.3 °F 29.7 °F 73% 30.16 in 10.0 mi SSE 5.8 mph - N/A   Overcast
11:14 PM 37.4 °F 32.8 °F 29.3 °F 73% 30.15 in 10.0 mi SSE 5.8 mph - N/A   Overcast
11:35 PM 37.4 °F 33.8 °F 29.7 °F 74% 30.15 in 10.0 mi SSE 4.6 mph - N/A   Mostly Cloudy
11:54 PM 37.8 °F 35.3 °F 29.7 °F 73% 30.15 in 10.0 mi SSE 3.5 mph - N/A   Scattered Clouds